YAOGAN 16C

Satellite information

Favourite Embed

Satellite Type and Status

PAYLOADIN ORBIT

Key statistics

Satellite YAOGAN 16C at a glance.

Uptime

4550

Days in orbit

Revolutions

≈ 13.5

Per day

Orbit

LEO

Low Earth Orbit

Inclination

63.4

Latest

Satellite identification and parameters

Extended collection of information and parameters for YAOGAN 16C.

Object identification

Identified? True

Debris? False

Object name: YAOGAN 16C

International designator: 2012-066C

Object number (NORAD): 39013

Object ID (CCSDS): 39013

Country: PEOPLES REPUBLIC OF CHINA (PRC)

Current information (Y/N): Y

RCS size: LARGE

Orbital parameters

Period: 107.028 minutes

Inclination: 63.3587 deg

SMA: 7467.216 km

Apoapsis: 1389.801 km

Periapsis: 788.36 km

RAAN: 248.1544 deg

Eccentricy: 0.0402721

Argument of periapsis: 23.2415 deg

Mean anomaly: 338.6267 deg

Mean motion: 13.45441156 rev/day

Mean motion (dot): -0.00000079 rev/day2

B* drag term: 0.000011933 1/REarth

Two-line elements (TLE)

Creation date: May 11, 2025, 2:40 a.m.

Reference frame: TEME

Reference center: EARTH

Epoch: May 10, 2025, 8:57 p.m. UTC

TLE line 0: 0 YAOGAN 16C

TLE line 1: 1 39013U 12066C 25130.87304719 -.00000079 00000-0 11933-4 0 9999

TLE line 2: 2 39013 63.3587 248.1544 0402721 23.2415 338.6267 13.45441156612009

Live tracking on map

Real-time ground track for satellite YAOGAN 16C.

In-orbit conjunctions

There are no conjunctions computed for YAOGAN 16C, at the moment. Check back to stay up to date, as we update our databases every day.

Go to all conjunctions

Associated space launch

YAOGAN 16C was lifted into orbit during the mission ‘Long March 4C | Yaogan 16A, Yaogan 16B, Yaogan 16C’, on board a Long March 4C space rocket.

The launch took place on Nov. 25, 2012, 4:06 a.m. from Launch Area 4 (SLS-2 / 603).

For more information about the launch, click the button.

Launch to space Long March 4C | Yaogan 16A, Yaogan 16B, Yaogan 16C
Long March 4C | Yaogan 16A, Yaogan 16B, Yaogan 16C

Agency: N/A

Status: Launch Successful

Launch date: Nov. 25, 2012, 4:06 a.m. UTC

Rocket: Long March 4C

Launch pad: Launch Area 4 (SLS-2 / 603)

Location: Jiuquan Satellite Launch Center, People's Republic of China

...

Latest news about this satellite

There are no fresh news available about this satellite. Check back as we update our databases every day.


Newsletter sign-up

Weekly statistics, charts and insights to help you stay on top of the space industry.